Lafayette, IN

1:35 PM EDT on June 23, 2017 (GMT -0400)
Purdue Univ

Weather History for KLAF - October, 2012

Change the Weather History Date:

Saturday, October 13, 2012

  Actual Average Record
Temperature  
Mean Temperature 55 °F 55 °F  
Max Temperature 68 °F 66 °F 87 °F (1975)
Min Temperature 41 °F 44 °F 23 °F (1988)
Degree Days  
Heating Degree Days 10 10  
Month to date heating degree days 198 112  
Since 1 July heating degree days 339 197  
Cooling Degree Days 0 0  
Month to date cooling degree days 0 13  
Year to date cooling degree days 1179 978  
Growing Degree Days 4 (Base 50)    
Moisture  
Dew Point 48 °F    
Average Humidity 79    
Maximum Humidity 100    
Minimum Humidity 57    
Precipitation  
Precipitation 0.75 in 0.09 in 1.55 in (2001)
Month to date precipitation 1.92 1.26  
Year to date precipitation 23.26 29.47  
Sea Level Pressure  
Sea Level Pressure 30.08 in    
Wind  
Wind Speed 7 mph (South)    
Max Wind Speed 13 mph    
Max Gust Speed 20 mph    
Visibility 7 miles    
Events Rain , Thunderstorm    
T = Trace of Precipitation, MM = Missing Value Source: NWS Daily Summary

Daily Weather History Graph

Daily Weather History Graph

Search for Another Location

Airport or City:

Trip Planner

Search our weather history database for the weather conditions in past years. The results will help you decide how hot, cold, wet, or windy it might be!

Date:

Astronomy

Oct. 13, 2012 Rise Set
Actual Time 7:57 AM EDT 7:10 PM EDT
Civil Twilight 7:29 AM EDT 7:37 PM EDT
Nautical Twilight 6:58 AM EDT 8:08 PM EDT
Astronomical Twilight 6:26 AM EDT 8:40 PM EDT
Moon 5:46 AM EDT (10/13) 5:53 PM EDT (10/13)
Length of Visible Light 12h 07m
Length of Day
11h 13m
Waning Crescent, 5% of the Moon is Illuminated
Oct 13
Waning Crescent
Oct 15
New
Oct 21
First Quarter
Oct 29
Full
Nov 6
Last Quarter

Hourly Weather History & Observations

Time (EDT) Temp. Windchill Dew Point Humidity Pressure Visibility Wind Dir Wind Speed Gust Speed Precip Events Conditions
12:54 AM 43.0 °F 40.3 °F 28.0 °F 56% 30.29 in 10.0 mi ESE 4.6 mph - N/A   Clear
1:54 AM 42.1 °F 37.7 °F 30.0 °F 62% 30.28 in 10.0 mi ESE 6.9 mph - N/A   Clear
2:54 AM 41.0 °F 37.1 °F 30.9 °F 67% 30.28 in 10.0 mi ESE 5.8 mph - N/A   Clear
3:54 AM 43.0 °F 40.3 °F 32.0 °F 65% 30.26 in 10.0 mi SE 4.6 mph - N/A   Mostly Cloudy
4:54 AM 45.0 °F 41.8 °F 33.1 °F 63% 30.23 in 10.0 mi SE 5.8 mph - N/A   Clear
5:54 AM 46.9 °F - 34.0 °F 61% 30.20 in 10.0 mi SSE 5.8 mph - N/A   Scattered Clouds
6:54 AM 48.0 °F - 36.0 °F 63% 30.19 in 10.0 mi SSE 5.8 mph - N/A   Overcast
7:54 AM 50.0 °F - 37.9 °F 63% 30.18 in 10.0 mi SSE 5.8 mph - N/A   Overcast
8:54 AM 50.0 °F - 39.0 °F 66% 30.16 in 10.0 mi South 6.9 mph - N/A   Scattered Clouds
9:54 AM 53.1 °F - 41.0 °F 64% 30.14 in 10.0 mi South 5.8 mph - N/A   Partly Cloudy
10:54 AM 55.9 °F - 42.1 °F 60% 30.12 in 10.0 mi South 9.2 mph - N/A   Clear
11:54 AM 57.9 °F - 46.0 °F 65% 30.10 in 10.0 mi SSW 9.2 mph 16.1 mph N/A   Clear
12:54 PM 60.1 °F - 50.0 °F 69% 30.09 in 10.0 mi SSW 8.1 mph - N/A   Mostly Cloudy
1:03 PM 60.8 °F - 51.8 °F 72% 30.08 in 10.0 mi SSW 6.9 mph 17.3 mph N/A   Mostly Cloudy
1:54 PM 57.9 °F - 55.0 °F 90% 30.07 in 5.0 mi SSW 3.5 mph - 0.05 in Rain Light Rain
2:25 PM 57.2 °F - 55.4 °F 94% 30.05 in 2.5 mi SW 3.5 mph - 0.09 in Rain Rain
2:54 PM 57.9 °F - 57.0 °F 97% 30.03 in 1.8 mi SSW 5.8 mph - 0.22 in Rain Heavy Rain
3:13 PM 59.0 °F - 57.2 °F 94% 30.03 in 2.0 mi WSW 4.6 mph - 0.06 in Rain Rain
3:54 PM 57.9 °F - 57.9 °F 100% 30.02 in 1.2 mi South 5.8 mph - 0.26 in Rain , Thunderstorm Heavy Rain
4:05 PM 59.0 °F - 57.2 °F 94% 30.01 in 1.8 mi South 5.8 mph - 0.03 in Rain Rain
4:54 PM 60.1 °F - 59.0 °F 96% 29.99 in 2.0 mi South 6.9 mph - 0.21 in Rain Rain
5:12 PM 60.8 °F - 59.0 °F 94% 29.97 in 4.0 mi South 4.6 mph - 0.01 in Rain Light Rain
5:54 PM 62.1 °F - 60.1 °F 93% 29.96 in 5.0 mi South 6.9 mph - 0.01 in   Overcast
6:54 PM 64.0 °F - 60.1 °F 87% 29.91 in 6.0 mi South 11.5 mph 18.4 mph N/A   Clear
7:54 PM 66.0 °F - 61.0 °F 84% 29.91 in 9.0 mi South 8.1 mph - N/A   Clear
8:54 PM 66.0 °F - 62.1 °F 87% 29.92 in 9.0 mi South 6.9 mph - N/A   Mostly Cloudy
10:54 PM 66.0 °F - 61.0 °F 84% 29.92 in 9.0 mi South 6.9 mph - N/A   Partly Cloudy
11:54 PM 66.9 °F - 61.0 °F 81% 29.89 in 10.0 mi SSW 8.1 mph 16.1 mph N/A   Mostly Cloudy